Wind_Speed
51 50 49 50 49 52 53 52 52 52 51 54 58 63 65 67 70 75 78 84 83 80 78 76 76 72 70 68 64 59 57 55 51 50 52 50 46 43 44 45 50 47 52 52 54 55 57
49 49 49 48 49 50 50 50 49 49 49 51 55 55 56 56 60 66 71 77 77 74 74 75 74 73 70 65 61 62 62 58 54 54 50 52 54 48 47 47 49 51 49 51 51 53 56
47 45 46 48 47 48 46 47 48 47 47 51 53 50 48 50 57 65 70 74 73 73 70 73 73 73 71 65 65 63 65 61 60 58 58 58 60 58 52 54 49 49 53 54 51 54 56
47 46 42 42 43 43 44 45 46 45 46 49 51 49 45 46 54 63 70 74 70 71 69 69 70 70 71 68 66 65 65 66 63 64 62 61 60 62 57 57 55 50 52 54 55 58 58
44 43 40 37 39 41 41 43 44 46 46 48 48 48 45 40 50 60 69 75 76 70 72 67 67 67 70 71 70 68 67 66 67 64 64 64 64 61 58 55 56 52 51 55 57 61 61
49 37 36 34 34 36 39 41 40 44 47 49 49 49 45 39 43 56 64 71 73 69 69 69 70 72 72 70 69 69 70 70 70 68 68 69 68 63 58 63 57 58 55 56 56 58 58
55 46 37 34 37 37 35 37 40 42 46 50 51 52 49 45 38 45 59 64 72 74 74 72 64 67 67 69 71 73 73 75 74 75 73 72 68 65 71 71 68 60 58 55 57 57 60
54 48 46 46 40 40 43 41 39 43 45 51 53 54 55 51 47 40 44 61 67 67 72 74 72 71 75 74 75 76 80 81 82 81 79 76 73 75 75 72 70 67 64 61 61 62 60
55 52 48 49 53 55 51 49 49 46 47 50 53 55 58 58 53 45 46 47 53 62 71 74 76 77 82 79 78 79 79 80 81 81 81 83 81 79 76 80 79 75 73 72 67 69 63
56 48 46 52 54 60 65 68 60 56 55 53 54 55 58 61 60 53 53 50 44 46 47 60 60 64 69 73 76 83 85 86 88 90 94 91 90 92 90 89 88 85 82 80 75 70 64
67 58 55 60 65 68 67 67 71 69 63 61 56 58 58 56 59 63 67 53 48 47 42 45 45 48 51 53 56 65 71 72 73 78 82 84 86 92 90 92 90 80 83 81 79 74 69
77 70 71 68 60 54 52 51 58 68 71 68 67 59 60 55 55 63 63 60 57 52 41 41 45 47 49 51 57 62 65 69 74 78 78 78 78 80 84 86 86 84 85 84 83 81 67
82 75 75 62 54 47 44 44 45 52 60 68 72 64 60 55 58 63 57 58 58 51 49 47 48 48 51 53 55 59 64 71 75 74 70 71 71 74 77 82 84 86 88 88 88 83 67
88 83 69 58 48 42 39 38 38 42 49 57 65 69 64 63 64 56 54 53 52 51 53 49 46 47 52 53 56 60 67 72 71 68 67 67 69 74 75 78 81 83 87 86 88 81 80
89 83 68 55 46 41 37 36 35 35 41 48 55 63 68 75 61 57 57 52 50 54 52 49 46 51 53 54 57 63 67 66 64 63 67 69 71 76 79 83 86 91 91 93 94 88 88
89 81 64 54 48 42 36 32 31 32 38 42 50 59 69 69 65 66 60 53 55 51 48 46 49 49 50 54 55 57 58 62 60 62 67 72 71 69 65 65 70 75 78 76 76 77 73
89 81 64 55 49 42 34 27 24 28 33 36 41 50 48 60 71 70 60 62 60 55 47 45 47 47 48 48 47 48 54 56 53 49 46 43 38 39 40 42 47 50 49 48 52 52 50
87 79 65 56 49 39 29 22 17 21 26 32 38 42 48 43 45 59 64 68 61 53 49 46 45 43 39 37 36 44 41 34 34 33 31 31 28 27 29 29 28 30 33 32 35 43 45
86 76 64 56 47 34 21 15 13 17 20 26 31 39 46 43 42 57 73 70 62 56 49 44 39 32 30 28 33 25 25 21 20 16 11 8 9 10 9 8 5 13 22 28 32 43 47
84 73 61 54 45 27 14 8 11 17 20 27 32 35 31 34 46 53 57 63 61 53 47 37 30 24 22 17 10 1 10 10 15 18 22 22 10 14 20 25 22 8 11 24 33 40 43
82 70 59 53 41 23 10 7 8 18 25 27 29 30 30 32 38 41 47 50 44 42 39 36 29 15 18 4 26 28 24 31 34 40 45 41 44 41 39 43 40 35 26 26 39 47 50
82 67 59 53 39 20 8 6 8 15 18 22 29 36 40 41 40 41 41 44 44 45 43 34 22 29 24 16 27 31 36 33 39 48 47 43 40 38 37 33 36 37 47 47 51 56 52
80 66 59 51 39 22 11 6 5 7 16 25 35 38 40 39 39 42 46 47 49 49 42 30 24 28 28 20 23 25 24 36 39 43 38 37 37 35 35 34 29 30 41 48 42 42 42
77 66 56 50 36 23 13 5 2 5 11 19 30 35 38 41 44 47 50 54 52 46 36 28 27 26 27 30 26 16 25 26 41 43 38 36 37 39 39 34 36 21 27 26 43 35 24
73 63 54 45 35 19 10 4 3 8 13 22 24 27 38 43 47 52 58 55 48 41 34 29 28 28 30 25 21 19 22 34 44 45 41 38 39 36 37 34 21 29 30 27 25 19 35
70 59 53 44 31 18 8 5 5 14 22 26 29 37 44 49 57 61 57 51 44 38 34 31 27 26 24 27 22 25 16 31 34 45 43 39 38 33 36 33 30 22 37 38 30 21 15
66 57 51 43 30 18 8 6 9 16 24 27 31 43 51 58 64 60 54 48 41 36 31 31 26 26 26 24 23 26 21 30 30 37 37 34 34 35 35 31 35 31 29 26 21 18 14
62 53 48 41 29 17 11 9 12 18 25 30 38 48 57 64 64 59 51 46 42 37 30 27 24 22 20 20 28 28 28 28 31 27 29 32 33 35 31 33 34 32 30 29 21 11 2
60 51 44 37 28 17 12 13 15 20 27 34 45 52 59 66 62 55 50 45 42 38 32 28 25 23 22 22 21 21 19 22 29 35 32 26 31 32 32 30 32 24 23 24 20 18 21
Wind_Direction
308 301 295 287 281 278 274 271 266 262 257 250 248 249 252 255 250 243 239 237 235 236 239 239 242 246 250 253 255 257 256 258 264 271 272 269 262 261 263 264 256 253 255 257 261 260 253
310 301 295 288 283 278 275 270 264 260 254 248 251 256 262 257 244 234 228 229 230 231 235 237 240 243 248 249 253 253 256 258 259 267 269 274 267 264 262 262 262 256 259 259 260 261 256
313 306 298 290 284 279 276 272 265 258 250 247 251 259 266 255 238 229 223 224 228 231 235 238 239 243 247 249 251 251 252 255 259 266 269 266 265 264 265 264 265 262 258 260 260 262 257
318 308 298 293 286 281 276 272 267 260 248 248 251 258 264 251 234 225 223 222 225 230 234 239 240 243 245 247 250 253 252 254 258 266 267 269 268 266 266 263 265 265 259 257 260 259 259
321 311 305 299 288 283 279 274 266 257 251 244 246 252 258 252 236 226 223 223 226 229 233 237 241 244 248 247 249 253 253 255 258 262 264 267 266 265 263 266 265 266 260 255 256 259 262
326 315 311 307 301 292 285 276 271 260 248 248 243 246 250 252 242 228 226 228 227 230 235 238 241 244 246 249 250 251 253 253 254 258 262 265 263 265 267 266 264 262 262 261 261 265 267
328 323 314 303 303 299 292 280 273 263 254 244 244 242 245 248 245 238 229 230 229 232 231 232 237 241 245 246 246 248 250 253 254 257 263 263 263 264 265 264 264 267 264 263 262 264 266
329 321 318 312 301 293 290 279 274 268 260 251 244 241 241 243 245 241 238 230 232 232 233 233 237 240 244 246 251 254 255 255 255 255 260 263 263 262 263 264 266 267 263 262 261 263 263
329 322 317 311 306 301 288 276 271 262 260 255 248 241 238 238 240 242 241 236 236 234 234 239 241 243 247 250 252 254 255 257 256 256 256 261 261 261 262 265 265 263 264 263 260 261 263
326 315 303 297 295 290 283 277 266 260 255 250 246 243 239 237 236 237 242 240 238 237 236 241 246 249 253 255 254 255 256 258 261 262 263 262 261 261 262 265 265 265 264 261 261 261 262
330 321 307 298 291 285 276 267 263 258 249 246 241 240 238 236 233 234 237 239 240 241 241 244 246 247 249 253 253 255 259 263 266 267 266 264 260 260 262 262 262 262 260 259 259 260 260
332 324 319 312 303 293 282 270 259 254 249 238 238 234 233 231 234 235 236 235 238 240 244 246 249 252 255 257 259 261 263 267 271 270 267 266 262 261 260 260 261 259 260 258 258 258 260
332 328 324 317 309 299 287 276 263 253 248 239 233 226 230 228 232 234 235 236 237 242 245 246 248 255 260 263 268 270 273 277 276 273 270 265 263 260 260 260 259 259 257 255 256 257 260
335 333 328 321 312 302 290 277 264 252 244 239 234 227 224 226 228 230 234 238 238 238 243 246 253 261 264 267 277 276 278 278 276 274 272 271 267 266 262 263 262 260 258 258 259 258 255
337 336 332 325 318 310 297 280 266 251 243 237 231 228 221 229 223 227 228 232 238 239 244 250 256 261 269 273 278 279 278 277 278 279 278 275 271 267 267 265 264 263 261 258 256 255 253
338 338 334 329 324 317 302 282 266 248 237 232 226 223 223 225 221 226 226 227 234 237 242 250 257 262 271 277 277 278 278 279 283 282 280 275 273 270 267 262 258 256 256 255 252 249 249
339 340 336 334 330 322 306 282 259 240 236 231 227 225 225 220 219 221 225 229 232 235 239 247 254 263 272 275 276 278 280 294 293 290 281 275 273 270 269 263 257 254 250 246 243 239 235
340 340 338 338 335 326 309 280 250 232 225 221 220 219 222 217 210 218 224 230 231 234 237 246 254 264 268 270 278 287 298 295 287 280 277 274 271 262 260 257 253 245 236 231 228 211 203
341 341 339 342 338 330 313 281 244 212 212 214 214 214 214 216 205 217 225 230 230 230 234 242 252 252 254 275 292 310 295 288 282 276 272 256 246 231 228 216 193 232 220 215 204 197 181
341 340 342 344 341 335 321 287 219 184 184 199 208 213 219 208 212 213 216 220 222 226 229 236 227 233 263 280 307 135 194 183 125 110 100 97 109 107 102 98 97 106 185 179 169 172 163
341 341 343 345 343 340 338 303 225 189 186 190 200 208 205 204 208 209 208 212 210 216 216 202 206 198 237 199 142 141 122 110 101 102 96 91 86 85 93 95 106 110 129 156 153 149 144
340 343 343 345 344 345 346 324 252 211 196 191 186 193 198 199 199 193 192 189 189 192 184 190 184 189 195 196 154 146 127 121 113 108 107 102 101 90 93 105 107 117 123 133 141 145 143
339 343 342 344 344 344 350 326 304 227 200 187 180 191 194 190 183 183 179 178 179 177 179 177 177 186 191 199 173 161 147 131 127 123 123 120 113 112 110 106 115 118 134 133 138 143 153
339 340 343 342 343 337 348 320 308 202 199 185 185 190 183 180 179 178 172 170 172 174 172 171 182 191 193 192 191 222 158 145 138 137 129 134 131 124 123 119 117 117 131 144 151 152 152
338 339 341 341 337 330 328 296 203 180 182 182 185 189 179 175 174 168 167 169 170 171 168 172 182 191 201 206 229 235 187 153 151 150 152 153 147 145 140 133 113 125 113 120 131 162 182
337 339 338 337 334 319 297 261 210 190 191 185 182 177 176 173 169 167 168 167 170 170 172 170 180 185 186 208 217 215 220 187 164 166 164 168 167 161 149 144 142 168 151 153 170 180 194
337 339 337 334 331 311 269 234 212 200 195 194 188 178 177 170 167 168 170 167 168 174 176 172 172 182 182 196 206 216 220 204 203 186 182 184 184 184 170 166 161 175 182 191 182 201 214
337 339 337 331 326 307 254 217 215 203 197 195 190 183 175 172 170 170 169 168 171 175 176 181 174 182 188 191 203 217 227 230 220 238 205 202 205 209 199 190 188 189 198 200 211 211 177
336 339 338 329 320 300 240 218 209 206 197 194 188 185 177 174 175 171 171 172 174 178 178 181 182 191 192 195 202 215 219 223 228 226 226 237 220 219 214 218 212 229 249 259 256 251 251
Height
10541 10533 10529 10524 10521 10517 10515 10515 10515 10516 10518 10521 10525 10532 10537 10539 10540 10545 10553 10560 10570 10581 10591 10597 10604 10610 10617 10620 10623 10628 10626 10632 10633 10634 10636 10639 10640 10643 10643 10645 10647 10655 10649 10652 10650 10651 10655
10527 10520 10513 10509 10504 10500 10499 10499 10499 10501 10504 10508 10511 10516 10518 10517 10521 10527 10536 10546 10556 10566 10576 10583 10590 10597 10604 10605 10615 10613 10612 10616 10622 10623 10624 10626 10626 10631 10632 10632 10635 10639 10642 10641 10642 10638 10641
10513 10506 10499 10493 10489 10485 10485 10484 10485 10487 10491 10495 10498 10501 10502 10502 10506 10513 10522 10532 10543 10554 10563 10570 10576 10582 10588 10596 10596 10600 10600 10603 10606 10608 10612 10612 10615 10618 10621 10619 10623 10626 10629 10628 10631 10625 10628
10501 10492 10486 10480 10476 10473 10472 10471 10472 10474 10478 10482 10486 10488 10490 10491 10495 10502 10511 10519 10529 10540 10550 10558 10564 10569 10573 10582 10584 10587 10589 10590 10593 10593 10595 10597 10600 10603 10608 10608 10610 10612 10615 10616 10611 10609 10613
10492 10480 10473 10469 10465 10461 10460 10460 10460 10462 10465 10468 10473 10476 10480 10481 10485 10491 10499 10508 10517 10526 10536 10544 10551 10555 10560 10567 10572 10572 10572 10578 10580 10580 10578 10582 10585 10589 10592 10593 10596 10597 10598 10596 10597 10594 10597
10479 10471 10463 10458 10453 10452 10450 10448 10449 10450 10452 10456 10460 10464 10468 10472 10475 10481 10488 10497 10504 10514 10524 10531 10537 10541 10546 10549 10556 10561 10560 10560 10563 10565 10566 10566 10569 10574 10578 10573 10580 10581 10585 10584 10585 10583 10585
10465 10457 10453 10450 10444 10441 10440 10438 10438 10438 10439 10443 10447 10452 10457 10461 10466 10471 10477 10484 10492 10500 10507 10513 10526 10525 10527 10530 10537 10544 10545 10545 10546 10548 10547 10550 10556 10563 10555 10555 10563 10569 10570 10571 10570 10568 10567
10456 10448 10440 10433 10432 10427 10424 10424 10425 10426 10427 10429 10434 10438 10444 10449 10455 10462 10468 10472 10476 10489 10495 10502 10510 10511 10514 10518 10522 10526 10528 10531 10532 10532 10530 10536 10543 10539 10540 10544 10548 10550 10551 10554 10554 10551 10553
10444 10435 10429 10422 10413 10407 10405 10404 10405 10408 10411 10414 10418 10423 10429 10436 10443 10453 10454 10459 10467 10475 10482 10487 10495 10501 10500 10506 10509 10507 10510 10513 10513 10517 10517 10518 10522 10520 10524 10524 10528 10531 10532 10534 10535 10529 10539
10434 10426 10417 10405 10396 10388 10380 10376 10379 10385 10389 10394 10400 10407 10413 10421 10432 10440 10442 10448 10458 10463 10472 10475 10482 10490 10489 10496 10499 10491 10490 10494 10498 10499 10499 10505 10504 10499 10503 10510 10504 10510 10509 10510 10515 10516 10527
10413 10405 10394 10381 10368 10358 10350 10349 10346 10351 10362 10371 10379 10386 10394 10407 10417 10421 10422 10441 10450 10452 10464 10468 10473 10475 10477 10480 10483 10482 10478 10477 10478 10477 10474 10478 10480 10476 10483 10485 10478 10492 10483 10490 10494 10500 10509
10393 10381 10367 10351 10337 10327 10321 10318 10319 10322 10329 10344 10352 10368 10374 10390 10403 10404 10414 10427 10434 10443 10458 10460 10460 10462 10467 10469 10468 10469 10467 10465 10462 10454 10454 10453 10454 10457 10460 10458 10459 10464 10465 10468 10472 10477 10498
10375 10361 10342 10327 10315 10306 10299 10296 10298 10301 10306 10316 10329 10347 10360 10375 10383 10387 10405 10414 10423 10438 10442 10449 10451 10454 10455 10454 10456 10454 10451 10447 10439 10432 10433 10431 10435 10436 10438 10436 10436 10437 10439 10442 10446 10458 10481
10356 10340 10324 10309 10298 10290 10283 10280 10279 10282 10287 10294 10307 10327 10344 10356 10363 10381 10394 10403 10416 10425 10428 10437 10444 10445 10442 10443 10442 10439 10434 10426 10419 10416 10414 10414 10415 10409 10414 10412 10410 10413 10412 10422 10424 10440 10447
10340 10325 10308 10294 10284 10275 10269 10265 10265 10268 10273 10279 10292 10306 10324 10331 10355 10369 10380 10395 10405 10409 10420 10428 10434 10433 10432 10432 10430 10423 10416 10409 10406 10403 10395 10393 10393 10389 10386 10383 10384 10384 10386 10396 10394 10407 10412
10327 10312 10296 10283 10272 10262 10255 10251 10251 10256 10260 10268 10277 10292 10307 10317 10341 10353 10369 10386 10389 10401 10411 10420 10421 10424 10423 10421 10417 10412 10405 10395 10393 10387 10378 10369 10367 10362 10361 10359 10357 10354 10355 10361 10369 10380 10393
10315 10299 10286 10274 10261 10251 10244 10240 10241 10245 10251 10260 10269 10281 10294 10308 10323 10341 10363 10369 10378 10392 10405 10409 10412 10415 10414 10411 10409 10404 10392 10387 10375 10365 10353 10347 10345 10344 10341 10339 10337 10337 10340 10346 10351 10364 10376
10309 10291 10278 10266 10254 10244 10237 10233 10235 10238 10247 10256 10261 10274 10285 10298 10318 10339 10348 10353 10370 10385 10396 10401 10405 10406 10407 10406 10401 10392 10387 10375 10364 10353 10348 10344 10340 10336 10330 10329 10328 10328 10332 10338 10343 10349 10358
10302 10286 10273 10261 10249 10240 10233 10232 10233 10236 10242 10251 10260 10268 10278 10289 10310 10324 10329 10343 10362 10375 10387 10395 10397 10400 10401 10399 10393 10388 10377 10368 10361 10356 10349 10344 10339 10333 10330 10327 10325 10326 10328 10331 10337 10347 10357
10299 10281 10269 10258 10247 10239 10231 10230 10235 10235 10245 10249 10254 10263 10273 10289 10299 10308 10323 10335 10351 10367 10380 10387 10391 10395 10393 10393 10390 10385 10380 10374 10367 10361 10355 10350 10343 10338 10334 10330 10330 10332 10334 10337 10343 10354 10366
10295 10278 10266 10255 10247 10240 10234 10231 10234 10235 10241 10248 10255 10266 10279 10288 10292 10304 10317 10330 10347 10361 10371 10380 10386 10390 10387 10390 10387 10386 10383 10379 10372 10368 10366 10363 10360 10357 10354 10351 10349 10349 10351 10350 10355 10363 10376
10287 10277 10261 10252 10247 10242 10238 10236 10235 10236 10240 10247 10256 10265 10272 10279 10289 10300 10313 10326 10340 10353 10366 10373 10380 10385 10384 10387 10387 10387 10383 10381 10376 10374 10373 10373 10370 10372 10369 10368 10368 10368 10369 10372 10375 10380 10388
10285 10274 10259 10251 10243 10239 10237 10236 10237 10239 10242 10247 10255 10262 10271 10281 10290 10300 10310 10323 10337 10349 10358 10366 10373 10379 10381 10383 10386 10387 10385 10386 10384 10382 10381 10380 10379 10379 10378 10378 10382 10385 10387 10389 10394 10398 10402
10283 10270 10263 10249 10246 10238 10237 10237 10238 10240 10244 10249 10255 10262 10272 10281 10288 10298 10310 10322 10334 10345 10356 10364 10369 10374 10378 10381 10384 10387 10388 10388 10389 10389 10389 10388 10387 10388 10388 10388 10392 10395 10397 10400 10403 10409 10415
10283 10269 10260 10254 10246 10243 10238 10238 10242 10243 10245 10250 10256 10263 10272 10279 10290 10300 10311 10321 10335 10345 10352 10360 10367 10371 10375 10380 10383 10387 10391 10390 10391 10392 10391 10392 10393 10394 10394 10396 10402 10403 10404 10410 10414 10414 10423
10282 10269 10256 10252 10248 10244 10240 10240 10241 10243 10246 10250 10257 10262 10271 10282 10291 10301 10311 10323 10333 10341 10350 10359 10364 10369 10373 10378 10381 10386 10392 10392 10393 10394 10395 10396 10398 10400 10401 10403 10406 10408 10410 10414 10417 10418 10423
10280 10267 10253 10246 10245 10242 10239 10239 10242 10244 10247 10250 10258 10265 10274 10282 10291 10300 10312 10323 10331 10340 10348 10356 10363 10367 10371 10376 10381 10384 10389 10393 10394 10398 10399 10401 10402 10403 10407 10409 10411 10414 10416 10418 10422 10425 10429
10276 10265 10252 10243 10241 10239 10237 10238 10240 10244 10248 10254 10261 10266 10274 10283 10291 10299 10310 10320 10329 10338 10346 10353 10359 10365 10371 10375 10379 10382 10385 10390 10394 10396 10398 10401 10403 10406 10412 10414 10416 10418 10421 10423 10426 10429 10434
10270 10261 10251 10242 10237 10236 10236 10234 10238 10243 10248 10254 10260 10265 10273 10283 10292 10302 10310 10320 10329 10337 10345 10352 10357 10363 10370 10374 10378 10380 10382 10386 10391 10395 10397 10400 10403 10407 10411 10416 10419 10422 10425 10427 10430 10433 10437